TimeEDT,TemperatureF,Dew PointF,Humidity,Sea Level PressureIn,VisibilityMPH,Wind Direction,Wind SpeedMPH,Gust SpeedMPH,PrecipitationIn,Events,Conditions,WindDirDegrees,DateUTC
12:15 AM,78.8,77.0,94,29.98,7.0,Calm,Calm,-,N/A,,Clear,0,2013-08-02 04:15:00
12:35 AM,78.8,77.0,94,29.98,7.0,West,3.5,-,N/A,,Scattered Clouds,270,2013-08-02 04:35:00
12:55 AM,78.8,77.0,94,29.98,5.0,West,4.6,-,N/A,,Scattered Clouds,270,2013-08-02 04:55:00
1:15 AM,78.8,77.0,94,29.98,7.0,West,4.6,-,N/A,,Clear,260,2013-08-02 05:15:00
1:35 AM,78.8,77.0,94,29.98,7.0,Calm,Calm,-,N/A,,Clear,0,2013-08-02 05:35:00
1:55 AM,78.8,77.0,94,29.98,5.0,SE,3.5,-,N/A,,Clear,140,2013-08-02 05:55:00
2:15 AM,78.8,77.0,94,29.97,5.0,Calm,Calm,-,N/A,,Clear,0,2013-08-02 06:15:00
2:35 AM,78.8,77.0,94,29.96,5.0,Calm,Calm,-,N/A,,Mostly Cloudy,0,2013-08-02 06:35:00
2:55 AM,78.8,77.0,94,29.96,4.0,Calm,Calm,-,N/A,,Overcast,0,2013-08-02 06:55:00
3:15 AM,78.8,77.0,94,29.95,5.0,Calm,Calm,-,N/A,,Mostly Cloudy,0,2013-08-02 07:15:00
3:35 AM,78.8,77.0,94,29.95,4.0,Calm,Calm,-,N/A,,Scattered Clouds,0,2013-08-02 07:35:00
3:55 AM,78.8,77.0,94,29.95,4.0,Calm,Calm,-,N/A,,Scattered Clouds,0,2013-08-02 07:55:00
4:15 AM,78.8,77.0,94,29.95,4.0,Calm,Calm,-,N/A,,Clear,0,2013-08-02 08:15:00
4:35 AM,78.8,77.0,94,29.95,4.0,Calm,Calm,-,N/A,,Clear,0,2013-08-02 08:35:00
4:55 AM,78.8,77.0,94,29.95,3.0,Calm,Calm,-,N/A,,Mist,0,2013-08-02 08:55:00
5:15 AM,78.8,77.0,94,29.95,4.0,Calm,Calm,-,N/A,,Clear,0,2013-08-02 09:15:00
5:35 AM,77.0,75.2,94,29.95,2.5,Calm,Calm,-,N/A,,Mist,0,2013-08-02 09:35:00
5:55 AM,77.0,75.2,94,29.96,1.2,Calm,Calm,-,N/A,,Overcast,0,2013-08-02 09:55:00
6:15 AM,77.0,75.2,94,29.96,2.0,Calm,Calm,-,N/A,,Overcast,0,2013-08-02 10:15:00
6:35 AM,77.0,75.2,94,29.97,1.0,Calm,Calm,-,N/A,,Overcast,0,2013-08-02 10:35:00
6:55 AM,77.0,75.2,94,29.98,0.5,Calm,Calm,-,N/A,Fog,Fog,0,2013-08-02 10:55:00
7:15 AM,78.8,77.0,94,29.98,0.2,Calm,Calm,-,N/A,Fog,Fog,0,2013-08-02 11:15:00
7:35 AM,78.8,78.8,100,29.99,0.2,Calm,Calm,-,N/A,Fog,Fog,0,2013-08-02 11:35:00
7:55 AM,78.8,78.8,100,30.00,0.2,Calm,Calm,-,N/A,Fog,Fog,0,2013-08-02 11:55:00
8:15 AM,78.8,78.8,100,30.00,0.2,Calm,Calm,-,N/A,Fog,Fog,0,2013-08-02 12:15:00
8:35 AM,78.8,78.8,100,30.00,0.5,Calm,Calm,-,N/A,Fog,Fog,0,2013-08-02 12:35:00
8:55 AM,78.8,78.8,100,30.01,1.8,Calm,Calm,-,N/A,,Overcast,0,2013-08-02 12:55:00
9:15 AM,78.8,78.8,100,30.01,3.0,Calm,Calm,-,N/A,,Overcast,0,2013-08-02 13:15:00
9:35 AM,78.8,78.8,100,30.01,5.0,Calm,Calm,-,N/A,,Overcast,0,2013-08-02 13:35:00
9:55 AM,80.6,78.8,94,30.03,7.0,Calm,Calm,-,N/A,,Overcast,0,2013-08-02 13:55:00
10:15 AM,80.6,78.8,94,30.03,10.0,Calm,Calm,-,N/A,,Mostly Cloudy,0,2013-08-02 14:15:00
10:35 AM,82.4,78.8,89,30.03,10.0,Calm,Calm,-,N/A,,Mostly Cloudy,0,2013-08-02 14:35:00
10:55 AM,84.2,78.8,84,30.03,10.0,Calm,Calm,-,N/A,,Mostly Cloudy,0,2013-08-02 14:55:00
11:15 AM,86.0,78.8,79,30.03,10.0,Calm,Calm,-,N/A,,Mostly Cloudy,0,2013-08-02 15:15:00
11:35 AM,86.0,77.0,74,30.03,10.0,Calm,Calm,-,N/A,,Mostly Cloudy,0,2013-08-02 15:35:00
11:55 AM,87.8,78.8,75,30.03,10.0,Calm,Calm,-,N/A,,Scattered Clouds,0,2013-08-02 15:55:00
12:15 PM,87.8,77.0,70,30.03,10.0,South,4.6,-,N/A,,Clear,190,2013-08-02 16:15:00
12:35 PM,89.6,77.0,66,30.03,10.0,SSW,3.5,-,N/A,,Scattered Clouds,210,2013-08-02 16:35:00
12:55 PM,89.6,77.0,66,30.03,10.0,Calm,Calm,-,N/A,,Scattered Clouds,0,2013-08-02 16:55:00
1:15 PM,91.4,77.0,63,30.03,10.0,Calm,Calm,-,N/A,,Scattered Clouds,0,2013-08-02 17:15:00
1:35 PM,89.6,78.8,70,30.02,10.0,South,3.5,-,N/A,,Scattered Clouds,170,2013-08-02 17:35:00
1:55 PM,91.4,78.8,66,30.02,10.0,Calm,Calm,-,N/A,,Clear,0,2013-08-02 17:55:00
2:15 PM,95.0,78.8,59,30.01,10.0,SW,5.8,-,N/A,,Scattered Clouds,220,2013-08-02 18:15:00
2:35 PM,95.0,77.0,56,30.00,10.0,WSW,4.6,-,N/A,,Clear,240,2013-08-02 18:35:00
2:55 PM,95.0,77.0,56,30.00,10.0,WSW,4.6,-,N/A,,Clear,240,2013-08-02 18:55:00
3:15 PM,91.4,77.0,63,29.99,10.0,West,4.6,-,N/A,,Clear,260,2013-08-02 19:15:00
3:35 PM,95.0,77.0,56,29.98,10.0,Calm,Calm,-,N/A,,Clear,0,2013-08-02 19:35:00
3:55 PM,95.0,77.0,56,29.98,10.0,SW,3.5,-,N/A,,Clear,220,2013-08-02 19:55:00
4:15 PM,95.0,75.2,53,29.97,10.0,Calm,Calm,-,N/A,,Clear,0,2013-08-02 20:15:00
4:35 PM,95.0,73.4,49,29.97,10.0,Calm,Calm,-,N/A,,Clear,0,2013-08-02 20:35:00
4:55 PM,95.0,73.4,49,29.96,10.0,Calm,Calm,-,N/A,,Clear,0,2013-08-02 20:55:00
5:15 PM,95.0,73.4,49,29.96,10.0,Calm,Calm,-,N/A,,Clear,0,2013-08-02 21:15:00
5:35 PM,95.0,73.4,49,29.96,10.0,Calm,Calm,-,N/A,,Clear,0,2013-08-02 21:35:00
5:55 PM,95.0,73.4,49,29.96,10.0,SW,3.5,-,N/A,,Clear,230,2013-08-02 21:55:00
6:15 PM,95.0,75.2,53,29.96,10.0,West,3.5,-,N/A,,Scattered Clouds,260,2013-08-02 22:15:00
6:35 PM,95.0,73.4,49,29.96,10.0,Calm,Calm,-,N/A,,Clear,0,2013-08-02 22:35:00
6:55 PM,95.0,75.2,53,29.96,10.0,Calm,Calm,-,N/A,,Clear,0,2013-08-02 22:55:00
7:15 PM,95.0,77.0,56,29.96,10.0,SSE,3.5,-,N/A,,Scattered Clouds,150,2013-08-02 23:15:00
7:35 PM,91.4,78.8,66,29.96,10.0,SSE,3.5,-,N/A,,Mostly Cloudy,150,2013-08-02 23:35:00
7:55 PM,89.6,78.8,70,29.98,10.0,SSE,3.5,-,N/A,,Overcast,150,2013-08-02 23:55:00
8:15 PM,87.8,78.8,75,29.98,10.0,South,4.6,-,N/A,,Mostly Cloudy,170,2013-08-03 00:15:00
8:35 PM,86.0,77.0,74,29.99,10.0,SW,9.2,18.4,N/A,,Scattered Clouds,220,2013-08-03 00:35:00
8:55 PM,84.2,77.0,79,30.00,10.0,WSW,5.8,-,N/A,,Mostly Cloudy,240,2013-08-03 00:55:00
9:15 PM,84.2,77.0,79,30.01,10.0,SW,3.5,-,N/A,Rain,Light Rain,220,2013-08-03 01:15:00
9:35 PM,84.2,77.0,79,30.02,10.0,SSW,6.9,-,N/A,,Scattered Clouds,210,2013-08-03 01:35:00
9:55 PM,82.4,75.2,79,30.02,10.0,SW,6.9,-,N/A,,Scattered Clouds,220,2013-08-03 01:55:00
10:15 PM,82.4,77.0,84,30.03,10.0,SW,3.5,-,N/A,,Mostly Cloudy,220,2013-08-03 02:15:00
10:35 PM,80.6,77.0,89,30.04,10.0,Calm,Calm,-,N/A,,Mostly Cloudy,0,2013-08-03 02:35:00
10:55 PM,80.6,77.0,89,30.05,10.0,Calm,Calm,-,N/A,,Scattered Clouds,0,2013-08-03 02:55:00
11:15 PM,80.6,77.0,89,30.05,10.0,Calm,Calm,-,N/A,,Mostly Cloudy,0,2013-08-03 03:15:00
11:35 PM,80.6,77.0,89,30.05,10.0,Calm,Calm,-,N/A,,Scattered Clouds,0,2013-08-03 03:35:00
11:55 PM,80.6,78.8,94,30.04,10.0,WSW,3.5,-,N/A,,Clear,240,2013-08-03 03:55:00